カタログに戻る

STARLINK-4579

運用中通信SSO
NORAD 53677·PAYLOAD·🇺🇸 United States

打ち上げ Aug 31, 2022 から Vandenberg Space Force Base

Loading…

次のパス (今後24時間)

TLE

最新Source: CelesTrak SupGP

元期: Sep 14, 2026, 21:39 UTC

1 53677C 22105AF  26257.90256944 -.00011611  00000+0 -36061-3 0  2576
2 53677  97.2841 134.6896 0001609  88.5608 171.9974 15.33428589    16

AllMySatでSTARLINK-4579をリアルタイム追跡

Download on the App Store